STARLINK-34888

Last updated on Thu Oct 02 2025 00:02:05 GMT+0000 (Coordinated Universal Time)

1 65471U 25195P 25274.40323174 .00157075 00000+0 27724-2 0 9997 2 65471 53.1586 281.0717 0001602 87.6252 272.4941 15.49344221 5568
UTC large
Height (km)
Speed (km/s)
/
Latitude / Longitude
Inclination (degrees)
Orbital Period (minutes)
Azimuth
Elevation
Range (km)
Doppler Factor

Next 0 passes for location: London (51.5072 / 0.1276)

Sorry there are no passes over London.